Lexington Weather

Lexington, Massachusetts, USA

67°F
9/23/2021 4:30am 
  • Lexington Conditions: Overcast
  • Temperature: 66.9°F / 19.4°CWarmer 0.5°F than last hour.
  • Dew Point: 65.7°FIncreased 0.6°Fsince last hour.
  • Relative Humidity: 96
  • Wind: Calm, 10-min avg: Calm, gust: 3 mph
  • Barometer: 30.03 in Steady
  • Visibility: 10 miles
  • Rain Today: 0.00 in
  •   

Regional Weather Roundup
for Boston / Norton, MA

        
000
ASUS41 KBOX 190604
RWRBOX

REGIONAL WEATHER ROUNDUP
NATIONAL WEATHER SERVICE BOSTON/NORTON MA
200 AM EDT SUN SEP 19 2021

NOTE:  "FAIR" INDICATES FEW OR NO CLOUDS BELOW 12,000 FEET WITH NO 
SIGNIFICANT WEATHER AND/OR OBSTRUCTIONS TO VISIBILITY.

MAZALL-190700-
EASTERN MASSACHUSETTS
  
CITY           SKY/WX    TMP DP  RH WIND       PRES   REMARKS
BOSTON         HVY RAIN  69  65  86 N9        30.03R FOG              
6HR MIN TEMP:  67; 6HR MAX TEMP:  73; 6HR PCP:  0.17;                

BEVERLY        RAIN      68  66  93 NW8       30.02R FOG              
LAWRENCE       CLOUDY    68  66  93 NW5       30.05R                  
BEDFORD        RAIN      67  66  97 NW5       30.02S FOG              
BLUE HILL      NOT AVBL                                               
NORWOOD        MOCLDY    68  66  93 NW3       30.02S                  
MARSHFIELD     MOCLDY    66  66 100 CALM      30.01S                  
PLYMOUTH       CLOUDY    67  65  93 NW6       30.01R                  
TAUNTON        CLOUDY    67  65  93 CALM      30.01S                  
NEW BEDFORD    CLOUDY    66  65  96 CALM      30.00S                  
$$

MAZALL-190700-
CAPE COD AND THE ISLANDS
  
CITY           SKY/WX    TMP DP  RH WIND       PRES   REMARKS
FALMOUTH       MOCLDY    66  66 100 CALM      29.99F                  
HYANNIS        CLOUDY    67  67 100 N6        29.98S                  
CHATHAM        LGT RAIN  65  65 100 CALM      29.98F                  
PROVINCETOWN   CLOUDY    65  65 100 N7        30.00S                  
NANTUCKET      PTCLDY    70  67  90 N10       29.98S                  
MARTHAS VNYRD  MOCLDY    67  67 100 W3        29.99S                  
$$
 
MAZALL-190700-
CENTRAL AND WESTERN MASSACHUSETTS
  
CITY           SKY/WX    TMP DP  RH WIND       PRES   REMARKS
WORCESTER      MOCLDY    66  58  75 NW8       30.06S                  
6HR MIN TEMP:  66; 6HR MAX TEMP:  71; 6HR PCP: TRACE;                

FITCHBURG      MOCLDY    66  62  87 CALM      30.06R                  
ORANGE         CLEAR     63  57  81 CALM      30.09R                  
SPRINGFIELD    CLEAR     66  56  70 N8        30.05R                  
WESTFIELD      CLEAR     66  60  81 N5        30.06S                  
NORTH ADAMS    CLEAR     58  53  84 W8        30.12S                  
PITTSFIELD     CLEAR     58  53  84 NW10      30.11S                  
$$
 
RIZALL-190700-
RHODE ISLAND
  
CITY           SKY/WX    TMP DP  RH WIND       PRES   REMARKS
PROVIDENCE     PTCLDY    69  66  90 N7        30.02S                  
6HR MIN TEMP:  68; 6HR MAX TEMP:  73; 6HR PCP: TRACE;                

NEWPORT        PTCLDY    67  66  97 NW5       30.00S                  
BLOCK ISLAND   CLEAR     68  67  96 NW6       30.01R                  
SMITHFIELD     PTCLDY    66  66 100 N7        30.03S                  
WESTERLY       CLEAR     65  65 100 N7        30.01S                  
$$
 
CTZALL-190700-
CONNECTICUT
  
CITY           SKY/WX    TMP DP  RH WIND       PRES   REMARKS
BRADLEY INTL   PTCLDY    66  61  84 N7        30.06R                  
6HR MIN TEMP:  66; 6HR MAX TEMP:  74;                                

HARTFORD       PTCLDY    70  62  76 N5        30.04S                  
BRIDGEPORT     CLEAR     72  62  71 NW10      30.04R                  
DANBURY        CLEAR     69  59  70 N5        30.09S                  
GROTON         CLEAR     68  66  93 N6        30.01R                  
NEW HAVEN      CLEAR     72  66  81 N6        30.04S                  
CHESTER        FAIR      70  66  88 N9        30.04S                  
MERIDEN        CLEAR     69  62  78 N5        30.05R                  
WILLIMANTIC    CLEAR     67  65  93 N3        30.04R                  
OXFORD         CLEAR     66  62  87 N9        30.08S                  
$$

MEZ002-015-021-024-NHZ003-005-008-011-012-014-VTZ005-008-190700-
NORTHERN NEW ENGLAND
  
CITY           SKY/WX    TMP DP  RH WIND       PRES   REMARKS
PORTLAND ME    MOCLDY    61  60  97 N8        30.05R                  
6HR MIN TEMP:  61; 6HR MAX TEMP:  67;                                

BANGOR ME      PTCLDY    58  50  75 N10       30.05S                  
CONCORD NH     PTCLDY    62  52  69 N5        30.06R                  
MANCHESTER NH  MOCLDY    68  53  58 N8        30.03R                  
NASHUA NH      CLOUDY    64  63  96 NW7       30.05S                  
PORTSMOUTH NH  MOCLDY    66  61  82 N10       30.05R                  
JAFFREY NH     PTCLDY    63  53  70 VRB3      30.08F                  
KEENE NH       CLEAR     59  56  89 CALM      30.09S                  
BURLINGTON VT  CLEAR     53  51  93 CALM      30.15R                  
MT. WASHINGTON PTCLDY    45  -2  14 N3          N/A                   
$$

NYZ052-076-190700-
EASTERN NEW YORK
  
CITY           SKY/WX    TMP DP  RH WIND       PRES   REMARKS
ALBANY         MOCLDY    56  56 100 NW5       30.12F                  
6HR MIN TEMP:  55; 6HR MAX TEMP:  64;                                

NEW YORK CITY  PTCLDY    73  61  65 N8G17     30.07R                  
6HR MIN TEMP:  73; 6HR MAX TEMP:  83;                                

$$
 
ANZALL-190700-
MARINE OBSERVATIONS
  
STATION/POSITION TIME  TEMP    WIND        PRES    VSBY  WAVE
                       AIR SEA DIR/SP/G                  HT/PER
                 (UTC) (F)     (DEG/KT/KT) (MB)    (MI)  (FT/S)
BOSTON BUOY      0540      66  310/  8/ 10 1016.7R
BUZZARDS BAY     0500          300/ 10/ 10 1016.7R
NANTUCKET SOUND  0540   70 72  340/ 10/ 12 1015.3F
MASS BAY-STELLWA 0504   66     340/  8/  8 1015.6R  1 7/8  5/11
ISLE OF SHOALS   0500   67     350/ 12/ 13 1015.7F
S OF BLOCK IS    0526      71                N/A           5/10
$$

......................KEY.........................
  SKY/WX - SKY CONDITION/PRESENT WEATHER
  TMP    - TEMPERATURE IN FAHRENHEIT
  DWPT   - DEWPOINT IN FAHRENHEIT
  RH     - RELATIVE HUMIDITY IN PERCENT
  WIND   - DIRECTION AND SPEED IN MPH
  PRES   - MEAN SEA LEVEL PRESSURE IN INCHES OF HG
  WCI    - WIND CHILL INDEX
  VSB    - VISIBILITY IN MILES
  HX     - HEAT INDEX
  TC     - TEMPERATURE IN CELSIUS
  VRB    - VARIABLE WIND DIRECTION
  N/A    - NOT AVAILABLE
  
      

Other recent Regional Weather Roundups

Thu Sep 23, 4:04am

Thu Sep 23, 3:04am

Thu Sep 23, 2:04am

Thu Sep 23, 1:04am

Thu Sep 23, 12:04am

Wed Sep 22, 11:04pm

Wed Sep 22, 10:04pm

Wed Sep 22, 9:04pm

Wed Sep 22, 8:04pm

Wed Sep 22, 7:04pm

Wed Sep 22, 6:04pm

Wed Sep 22, 5:04pm

Wed Sep 22, 4:04pm

Wed Sep 22, 3:04pm

Wed Sep 22, 2:04pm

Wed Sep 22, 1:04pm

Wed Sep 22, 12:05pm

Wed Sep 22, 11:04am

Wed Sep 22, 10:04am

Wed Sep 22, 9:04am

Wed Sep 22, 8:04am

Wed Sep 22, 7:04am

Wed Sep 22, 6:04am

Wed Sep 22, 5:04am

Wed Sep 22, 4:04am

Wed Sep 22, 3:04am

Wed Sep 22, 2:04am

Wed Sep 22, 1:04am

Wed Sep 22, 12:04am

Tue Sep 21, 11:04pm

Tue Sep 21, 10:04pm

Tue Sep 21, 9:04pm

Tue Sep 21, 8:04pm

Tue Sep 21, 7:04pm

Tue Sep 21, 6:04pm

Tue Sep 21, 5:04pm

Tue Sep 21, 4:04pm

Tue Sep 21, 3:04pm

Tue Sep 21, 2:04pm

Tue Sep 21, 1:04pm

Tue Sep 21, 12:04pm

Tue Sep 21, 11:04am

Tue Sep 21, 10:04am

Tue Sep 21, 9:04am

Tue Sep 21, 8:04am

Tue Sep 21, 7:04am

Tue Sep 21, 6:04am

Tue Sep 21, 5:04am

Tue Sep 21, 4:04am

Tue Sep 21, 3:04am

Tue Sep 21, 2:04am

Tue Sep 21, 1:04am

Tue Sep 21, 12:04am

Mon Sep 20, 11:04pm

Mon Sep 20, 10:04pm

Mon Sep 20, 9:04pm

Mon Sep 20, 8:04pm

Mon Sep 20, 7:04pm

Mon Sep 20, 6:04pm

Mon Sep 20, 5:04pm

Mon Sep 20, 4:04pm

Mon Sep 20, 3:04pm

Mon Sep 20, 2:04pm

Mon Sep 20, 1:04pm

Mon Sep 20, 12:04pm

Mon Sep 20, 11:04am

Mon Sep 20, 10:04am

Mon Sep 20, 9:04am

Mon Sep 20, 7:04am

Mon Sep 20, 6:04am

Mon Sep 20, 5:04am

Mon Sep 20, 4:04am

Mon Sep 20, 3:04am

Mon Sep 20, 2:04am

Mon Sep 20, 1:04am

Mon Sep 20, 12:04am

Sun Sep 19, 11:04pm

Sun Sep 19, 10:04pm

Sun Sep 19, 9:04pm

Sun Sep 19, 8:04pm

Sun Sep 19, 7:04pm

Sun Sep 19, 6:04pm

Sun Sep 19, 5:04pm

Sun Sep 19, 4:04pm

Sun Sep 19, 3:04pm

Sun Sep 19, 2:05pm

Sun Sep 19, 1:04pm

Sun Sep 19, 12:04pm

Sun Sep 19, 11:04am

Sun Sep 19, 10:05am

Sun Sep 19, 9:04am

Sun Sep 19, 8:04am

Sun Sep 19, 7:04am

Sun Sep 19, 6:04am

Sun Sep 19, 5:04am

Sun Sep 19, 4:04am

Sun Sep 19, 3:04am

Sun Sep 19, 1:04am

Sun Sep 19, 12:04am

Sat Sep 18, 11:05pm

Sat Sep 18, 10:04pm

Sat Sep 18, 9:04pm

Sat Sep 18, 8:04pm

Sat Sep 18, 7:04pm

Sat Sep 18, 6:04pm

Sat Sep 18, 5:04pm

Sat Sep 18, 4:04pm

Sat Sep 18, 3:04pm

Sat Sep 18, 2:04pm

Sat Sep 18, 1:04pm

Sat Sep 18, 12:04pm

Sat Sep 18, 11:04am

Sat Sep 18, 10:04am

Sat Sep 18, 9:04am

Sat Sep 18, 8:04am

Sat Sep 18, 7:04am

Sat Sep 18, 6:04am

Sat Sep 18, 5:04am

Sat Sep 18, 4:04am

Sat Sep 18, 3:04am

Sat Sep 18, 2:04am

Sat Sep 18, 1:04am

Sat Sep 18, 12:04am

Fri Sep 17, 11:04pm

Fri Sep 17, 10:04pm

Fri Sep 17, 9:04pm

Fri Sep 17, 8:04pm

Fri Sep 17, 7:04pm

Fri Sep 17, 6:04pm

Fri Sep 17, 5:04pm

Fri Sep 17, 4:04pm

Fri Sep 17, 3:04pm

Fri Sep 17, 2:04pm

Fri Sep 17, 1:04pm

Fri Sep 17, 12:05pm

Fri Sep 17, 11:04am

Fri Sep 17, 10:04am

Fri Sep 17, 9:04am

Fri Sep 17, 8:04am

Fri Sep 17, 7:04am

Fri Sep 17, 6:04am

Fri Sep 17, 5:04am

Fri Sep 17, 4:04am

Fri Sep 17, 3:04am

Fri Sep 17, 2:04am

Fri Sep 17, 1:04am

Fri Sep 17, 12:04am

Thu Sep 16, 11:04pm

Thu Sep 16, 10:04pm

Thu Sep 16, 9:04pm

Thu Sep 16, 8:04pm

Thu Sep 16, 7:04pm

Thu Sep 16, 6:04pm

Thu Sep 16, 5:04pm

Thu Sep 16, 4:04pm

Thu Sep 16, 3:04pm

Thu Sep 16, 2:04pm

Thu Sep 16, 1:05pm

Thu Sep 16, 12:04pm

Thu Sep 16, 11:05am

Thu Sep 16, 10:05am

Thu Sep 16, 9:04am

Thu Sep 16, 8:04am

Thu Sep 16, 7:04am

Thu Sep 16, 6:04am

Thu Sep 16, 5:04am

Meta data:

ID: 60afb039-f1a1-4d12-803c-7463e93562b0
Link: https://api.weather.gov/products/60afb039-f1a1-4d12-803c-7463e93562b0